When you browse on this site, cookies collect data to enhance your experience and personalize the content and advertising you see.
Visit our Privacy Policy to learn more. By continuing to use the site, you agree to this use of cookies and data.
  • In Portugal
  • List of Countries
  • For 7 days
  • Water Temperature
  • Satellite Maps
  • Weather Map
  • Weather Widgets
  • user-avatar
    Login

    Hourly Weather Osla

    Today, 21 January, Monday

    Time Temperature Precipitation Wind Pressure Humidity
    00:00 -4°C° 0 mm 0 mps 750 mmHg 66%
    01:00 -4°C° 0 mm 0 mps 750 mmHg 66%
    02:00 -4°C° 0 mm 0 mps 750 mmHg 66%
    03:00 -4°C° 0 mm 0 mps 750 mmHg 67%
    04:00 -5°C° 0 mm 0 mps 750 mmHg 67%
    05:00 -5°C° 0 mm 0 mps 750 mmHg 67%
    06:00 -5°C° 0 mm 0 mps 750 mmHg 66%
    07:00 -5°C° 0 mm 0 mps 750 mmHg 66%
    08:00 -4°C° 0 mm 0 mps 750 mmHg 62%
    09:00 -3°C° 0 mm 0 mps 750 mmHg 57%
    10:00 -3°C° 0 mm 0 mps 751 mmHg 53%
    11:00 -2°C° 0 mm 0 mps 750 mmHg 49%
    12:00 -1°C° 0 mm 0 mps 750 mmHg 45%
    13:00 0°C° 0 mm 0 mps 750 mmHg 41%
    14:00 0°C° 0 mm 0 mps 749 mmHg 43%
    15:00 -1°C° 0 mm 0 mps 749 mmHg 46%
    16:00 -1°C° 0 mm 0 mps 749 mmHg 48%
    17:00 -2°C° 0 mm 0 mps 749 mmHg 51%
    18:00 -1°C° 0 mm 1 mps 748 mmHg 53%
    19:00 -2°C° 0 mm 1 mps 748 mmHg 55%
    20:00 -2°C° 0 mm 1 mps 748 mmHg 56%
    21:00 -2°C° 0 mm 1 mps 748 mmHg 57%
    22:00 -2°C° 0 mm 1 mps 748 mmHg 58%
    23:00 -2°C° 0 mm 1 mps 747 mmHg 58%

    Tomorrow, 22 January, Tuesday

    Time Temperature Precipitation Wind Pressure Humidity
    00:00 -2°C° 0 mm 1 mps 747 mmHg 57%
    01:00 -2°C° 0 mm 1 mps 747 mmHg 56%
    02:00 -2°C° 0 mm 1 mps 746 mmHg 57%
    03:00 -3°C° 0 mm 1 mps 746 mmHg 58%
    04:00 -3°C° 0 mm 1 mps 745 mmHg 59%
    05:00 -3°C° 0 mm 1 mps 745 mmHg 61%
    06:00 -3°C° 0 mm 1 mps 745 mmHg 63%
    07:00 -3°C° 0 mm 1 mps 745 mmHg 65%
    08:00 -3°C° 0 mm 1 mps 744 mmHg 62%
    09:00 -2°C° 0 mm 1 mps 744 mmHg 59%
    10:00 -1°C° 0 mm 1 mps 744 mmHg 56%
    11:00 0°C° 0 mm 1 mps 743 mmHg 53%
    12:00 +1°C° 0 mm 1 mps 743 mmHg 49%
    13:00 +1°C° 0 mm 1 mps 742 mmHg 46%
    14:00 +1°C° 0 mm 1 mps 742 mmHg 48%
    15:00 -2°C° 0 mm 2 mps 741 mmHg 51%
    16:00 -2°C° 0 mm 2 mps 741 mmHg 54%
    17:00 -3°C° 0 mm 2 mps 741 mmHg 56%
    18:00 -3°C° 0 mm 2 mps 740 mmHg 59%
    19:00 -4°C° 0 mm 2 mps 740 mmHg 62%
    20:00 -4°C° 0 mm 2 mps 740 mmHg 61%
    21:00 -4°C° 0 mm 2 mps 740 mmHg 60%
    22:00 -5°C° 0 mm 2 mps 739 mmHg 59%
    23:00 -5°C° 0 mm 2 mps 739 mmHg 59%

    Day after tomorrow, 23 January, Wednesday

    Time Temperature Precipitation Wind Pressure Humidity
    00:00 -5°C° 0 mm 2 mps 739 mmHg 60%
    01:00 -5°C° 0 mm 2 mps 738 mmHg 60%
    02:00 -5°C° 0 mm 2 mps 738 mmHg 61%
    03:00 -5°C° 0 mm 2 mps 738 mmHg 63%
    04:00 -5°C° 0 mm 2 mps 737 mmHg 64%
    05:00 -7°C° 0 mm 3 mps 737 mmHg 67%
    06:00 -7°C° 0 mm 3 mps 737 mmHg 69%
    07:00 -7°C° 0 mm 3 mps 737 mmHg 72%
    08:00 -6°C° 0 mm 3 mps 737 mmHg 70%
    09:00 -7°C° 0 mm 4 mps 737 mmHg 67%
    10:00 -7°C° 0 mm 4 mps 737 mmHg 65%
    11:00 -5°C° 0 mm 4 mps 737 mmHg 63%
    12:00 -5°C° 0 mm 5 mps 737 mmHg 61%
    13:00 -5°C° 0 mm 5 mps 737 mmHg 59%
    14:00 -4°C° 0 mm 4 mps 737 mmHg 62%
    15:00 -4°C° 0 mm 4 mps 737 mmHg 65%
    16:00 -5°C° 0 mm 4 mps 737 mmHg 68%
    17:00 -5°C° 0 mm 4 mps 738 mmHg 71%
    18:00 -7°C° 0 mm 4 mps 738 mmHg 75%
    19:00 -7°C° 0 mm 4 mps 739 mmHg 78%
    20:00 -7°C° 0 mm 4 mps 739 mmHg 79%
    21:00 -7°C° 0 mm 4 mps 739 mmHg 79%
    22:00 -7°C° 0 mm 4 mps 740 mmHg 80%
    23:00 -8°C° 0 mm 4 mps 740 mmHg 80%

    24 January, Thursday

    Time Temperature Precipitation Wind Pressure Humidity
    00:00 -8°C° 0 mm 4 mps 740 mmHg 80%
    01:00 -8°C° 0 mm 4 mps 741 mmHg 80%
    02:00 -8°C° 0 mm 4 mps 741 mmHg 80%
    03:00 -8°C° 0 mm 4 mps 741 mmHg 80%
    04:00 -8°C° 0 mm 4 mps 741 mmHg 80%
    05:00 -8°C° 0 mm 4 mps 741 mmHg 79%
    06:00 -9°C° 0 mm 4 mps 742 mmHg 79%
    07:00 -9°C° 0 mm 4 mps 742 mmHg 79%
    08:00 -8°C° 0 mm 4 mps 743 mmHg 76%
    09:00 -8°C° 0 mm 4 mps 743 mmHg 73%
    10:00 -7°C° 0 mm 4 mps 744 mmHg 70%
    11:00 -7°C° 0 mm 4 mps 744 mmHg 67%
    12:00 -5°C° 0 mm 4 mps 744 mmHg 65%
    13:00 -5°C° 0 mm 4 mps 744 mmHg 62%
    14:00 -5°C° 0 mm 3 mps 744 mmHg 63%
    15:00 -5°C° 0 mm 3 mps 744 mmHg 64%
    16:00 -5°C° 0 mm 3 mps 744 mmHg 66%
    17:00 -5°C° 0 mm 3 mps 745 mmHg 68%
    18:00 -5°C° 0 mm 2 mps 745 mmHg 71%
    19:00 -5°C° 0 mm 2 mps 745 mmHg 74%
    20:00 -5°C° 0 mm 2 mps 746 mmHg 75%
    21:00 -5°C° 0 mm 2 mps 746 mmHg 76%
    22:00 -3°C° 0 mm 1 mps 746 mmHg 77%
    23:00 -4°C° 0 mm 1 mps 746 mmHg 78%

    25 January, Friday

    Time Temperature Precipitation Wind Pressure Humidity
    00:00 -4°C° 0 mm 1 mps 746 mmHg 79%
    01:00 -4°C° 0 mm 1 mps 746 mmHg 80%
    02:00 -4°C° 0 mm 1 mps 746 mmHg 80%
    03:00 -5°C° 0 mm 0 mps 746 mmHg 80%
    04:00 -5°C° 0 mm 0 mps 746 mmHg 81%
    05:00 -5°C° 0 mm 0 mps 747 mmHg 80%
    06:00 -5°C° 0 mm 0 mps 747 mmHg 80%
    07:00 -4°C° 0 mm 1 mps 747 mmHg 80%
    08:00 -3°C° 0 mm 1 mps 747 mmHg 78%
    09:00 -3°C° 0 mm 1 mps 747 mmHg 76%
    10:00 -3°C° 0 mm 1 mps 747 mmHg 74%
    11:00 -3°C° 0 mm 1 mps 747 mmHg 71%
    12:00 -2°C° 0 mm 1 mps 747 mmHg 67%
    13:00 -2°C° 0 mm 1 mps 747 mmHg 64%
    14:00 -2°C° 0 mm 1 mps 746 mmHg 64%
    15:00 -2°C° 0 mm 1 mps 746 mmHg 64%
    16:00 -2°C° 0 mm 1 mps 746 mmHg 65%
    17:00 -2°C° 0 mm 1 mps 746 mmHg 67%
    18:00 -3°C° 0 mm 1 mps 745 mmHg 68%
    19:00 -3°C° 0 mm 1 mps 745 mmHg 70%
    20:00 -5°C° 0 mm 2 mps 745 mmHg 69%
    21:00 -5°C° 0 mm 2 mps 744 mmHg 68%
    22:00 -5°C° 0 mm 2 mps 744 mmHg 66%
    23:00 -5°C° 0 mm 2 mps 743 mmHg 62%

    26 January, Saturday

    Time Temperature Precipitation Wind Pressure Humidity
    00:00 -5°C° 0 mm 3 mps 743 mmHg 58%
    01:00 -5°C° 0 mm 3 mps 742 mmHg 54%
    02:00 -4°C° 0.1 mm 3 mps 741 mmHg 61%
    03:00 -4°C° 0.1 mm 3 mps 741 mmHg 67%
    04:00 -4°C° 0.1 mm 4 mps 740 mmHg 74%
    05:00 -3°C° 0.3 mm 4 mps 740 mmHg 78%
    06:00 -3°C° 0.3 mm 4 mps 739 mmHg 82%
    07:00 -2°C° 0.3 mm 5 mps 739 mmHg 87%
    08:00 -1°C° 0.1 mm 5 mps 739 mmHg 87%
    09:00 -1°C° 0.1 mm 5 mps 739 mmHg 88%
    10:00 0°C° 0.1 mm 5 mps 739 mmHg 89%
    11:00 0°C° 0 mm 5 mps 739 mmHg 88%
    12:00 0°C° 0 mm 4 mps 739 mmHg 87%
    13:00 +1°C° 0 mm 3 mps 739 mmHg 87%
    14:00 +1°C° 0 mm 3 mps 738 mmHg 88%
    15:00 +2°C° 0 mm 2 mps 738 mmHg 90%
    16:00 +1°C° 0 mm 2 mps 738 mmHg 91%
    17:00 +1°C° 0 mm 2 mps 737 mmHg 91%
    18:00 +1°C° 0 mm 2 mps 737 mmHg 91%
    19:00 +1°C° 0 mm 2 mps 737 mmHg 91%
    20:00 +1°C° 0.1 mm 2 mps 736 mmHg 91%
    21:00 +1°C° 0.1 mm 2 mps 736 mmHg 90%
    22:00 +1°C° 0.1 mm 2 mps 735 mmHg 90%
    23:00 +2°C° 0 mm 2 mps 735 mmHg 90%
    Show more